Terug naar catalogus

THORAD DELTA 1 DEB

ActiefSSO
NORAD 42613·DEBRIS·🇺🇸 United States

Gelanceerd Nov 15, 1974 vanaf Vandenberg Space Force Base

Loading…

Volgende Passages (komende 24 uur)

TLE

VersSource: Space-Track

Epoch: Sep 13, 2026, 05:59 UTC

1 42613U 74089GE  26256.24966500 -.00000042  00000-0  28830-4 0  9999
2 42613 102.2584 266.2462 0067445  21.1792  41.2849 12.43779426582374

Volg THORAD DELTA 1 DEB in realtime met AllMySat

Download on the App Store